Ignacio, CO

2:25 PM MDT on September 27, 2016 (GMT -0600)
Durango-La Plata County

Weather History for KDRO - June, 2013

Change the Weather History Date:

Friday, June 28, 2013

  Actual Average Record
Temperature  
Mean Temperature 75 °F 66 °F  
Max Temperature 95 °F 85 °F 97 °F (1990)
Min Temperature 54 °F 46 °F 35 °F (1985)
Degree Days  
Heating Degree Days 0 1  
Month to date heating degree days 40 113  
Since 1 June heating degree days 40 113  
Since 1 July heating degree days 7146 7121  
Cooling Degree Days 10 2  
Month to date cooling degree days 43 24  
Year to date cooling degree days 43 25  
Since 1 June cooling degree days 43 24  
Growing Degree Days 25 (Base 50)    
Moisture  
Dew Point 37 °F    
Average Humidity 29    
Maximum Humidity 47    
Minimum Humidity 11    
Precipitation  
Precipitation 0.00 in 0.04 in 0.64 in (2004)
Month to date precipitation T 0.57  
Year to date precipitation 3.75 6.00  
Sea Level Pressure  
Sea Level Pressure 30.13 in    
Wind  
Wind Speed 7 mph (NE)    
Max Wind Speed 25 mph    
Max Gust Speed 32 mph    
Visibility 7 miles    
Events      
T = Trace of Precipitation, MM = Missing Value Source: NWS Daily Summary

Daily Weather History Graph

Daily Weather History Graph

Search for Another Location

Airport or City:

Trip Planner

Search our weather history database for the weather conditions in past years. The results will help you decide how hot, cold, wet, or windy it might be!

Date:

Astronomy

Jun. 28, 2013 Rise Set
Actual Time 5:53 AM MDT 8:35 PM MDT
Civil Twilight 5:22 AM MDT 9:06 PM MDT
Nautical Twilight 4:44 AM MDT 9:44 PM MDT
Astronomical Twilight 4:00 AM MDT 10:27 PM MDT
Moon No Moon Rise 11:55 AM MDT (6/28)
Length of Visible Light 15h 43m
Length of Day
14h 41m
Waning Gibbous, 65% of the Moon is Illuminated
Jun 28
Waning Gibbous
Jun 29
Last Quarter
Jul 8
New
Jul 15
First Quarter
Jul 22
Full

Hourly Weather History & Observations

Time (MDT) Temp. Dew Point Humidity Pressure Visibility Wind Dir Wind Speed Gust Speed Precip Events Conditions
12:53 AM 64.9 °F 34.0 °F 32% 30.01 in 10.0 mi North 3.5 mph - N/A   Scattered Clouds
1:05 AM 66.2 °F 33.8 °F 30% 30.34 in 10.0 mi North 4.6 mph - N/A   Mostly Cloudy
1:53 AM 62.1 °F 33.1 °F 34% 30.01 in 10.0 mi Calm Calm - N/A   Overcast
2:15 AM 60.8 °F 33.8 °F 36% 30.33 in 10.0 mi Calm Calm - N/A   Overcast
2:53 AM 63.0 °F 34.0 °F 34% 30.00 in 6.0 mi NNW 5.8 mph - N/A   Haze
3:30 AM 60.8 °F 32.0 °F 34% 30.33 in 9.0 mi Calm Calm - N/A   Overcast
3:53 AM 61.0 °F 33.1 °F 35% 30.00 in 4.0 mi North 4.6 mph - N/A   Haze
4:53 AM 57.9 °F 33.1 °F 39% 30.05 in 4.0 mi ESE 4.6 mph - N/A   Haze
5:53 AM 59.0 °F 34.0 °F 39% 30.06 in 3.0 mi North 9.2 mph - N/A   Haze
6:28 AM 57.2 °F 33.8 °F 41% 30.38 in 2.5 mi NNE 4.6 mph - N/A   Haze
6:53 AM 55.9 °F 35.1 °F 45% 30.12 in 3.0 mi Calm Calm - N/A   Haze
7:06 AM 57.2 °F 35.6 °F 44% 30.39 in 2.5 mi North 5.8 mph - N/A   Haze
7:53 AM 61.0 °F 37.9 °F 42% 30.13 in 2.5 mi Calm Calm - N/A   Haze
8:29 AM 66.2 °F 39.2 °F 37% 30.42 in 3.0 mi Calm Calm - N/A   Haze
8:53 AM 69.1 °F 39.9 °F 35% 30.14 in 2.5 mi Calm Calm - N/A   Haze
9:00 AM 69.8 °F 41.0 °F 35% 30.42 in 3.0 mi Calm Calm - N/A   Haze
9:29 AM 77.0 °F 39.2 °F 26% 30.42 in 2.5 mi Calm Calm - N/A   Haze
9:53 AM 79.0 °F 37.0 °F 22% 30.12 in 3.0 mi NNW 3.5 mph - N/A   Haze
10:53 AM 84.0 °F 41.0 °F 22% 30.09 in 9.0 mi SE 8.1 mph - N/A   Clear
11:53 AM 86.0 °F 41.0 °F 20% 30.08 in 9.0 mi Calm Calm - N/A   Clear
12:53 PM 91.0 °F 39.9 °F 17% 30.03 in 10.0 mi NNE 10.4 mph - N/A   Clear
1:53 PM 91.0 °F 39.0 °F 16% 30.00 in 10.0 mi Variable 5.8 mph - N/A   Clear
2:53 PM 93.9 °F 34.0 °F 12% 29.95 in 10.0 mi NNW 11.5 mph 20.7 mph N/A   Clear
3:53 PM 95.0 °F 32.0 °F 11% 29.96 in 10.0 mi North 13.8 mph - N/A   Clear
4:06 PM 91.4 °F 39.2 °F 16% 30.29 in 10.0 mi ENE 20.7 mph 32.2 mph N/A   Clear
4:53 PM 89.1 °F 37.0 °F 16% 29.98 in 10.0 mi ENE 24.2 mph 31.1 mph N/A   Clear
5:53 PM 87.1 °F 37.0 °F 17% 30.01 in 10.0 mi East 15.0 mph 23.0 mph N/A   Clear
6:53 PM 82.0 °F 37.0 °F 20% 30.06 in 10.0 mi SE 16.1 mph - N/A   Mostly Cloudy
7:53 PM 82.9 °F 33.1 °F 17% 29.98 in 10.0 mi ESE 12.7 mph 18.4 mph N/A   Partly Cloudy
8:53 PM 77.0 °F 37.9 °F 24% 30.03 in 6.0 mi East 11.5 mph - N/A   Haze
9:53 PM 73.9 °F 41.0 °F 30% 30.05 in 9.0 mi East 5.8 mph - N/A   Clear
10:53 PM 70.0 °F 41.0 °F 35% 30.07 in 8.0 mi Calm Calm - N/A   Clear
11:53 PM 66.0 °F 39.9 °F 38% 30.08 in 7.0 mi NE 6.9 mph - N/A   Clear